Regional Weather Roundup
Issued by NWS Goodland, KS

Home | Current Version | Previous Version | Graphics & Text | Print | Product List | Glossary On
Versions: 1 2 3 4 5 6 7 8 9 10 11 12 13 14 15 16 17 18 19 20 21 22 23 24 25 26 27 28 29 30 31 32 33 34 35 36 37 38 39 40 41 42 43 44 45 46 47 48 49 50
545
ASUS43 KGLD 240259
RWRGLD

GOODLAND FORECAST AREA HOURLY WEATHER ROUNDUP
NATIONAL WEATHER SERVICE GOODLAND KS
800 PM MST THU FEB 23 2017

...OFFICIAL OBSERVATIONS...

CITY           SKY/WX    TMP DP  RH WIND       PRES   REMARKS
GOODLAND KS    CLOUDY    25  23  92 N18       29.74R WCI  11
HILL CITY KS   CLOUDY    33  30  88 N20G26    29.70R
IMPERIAL NEB   LGT SNOW  25  21  85 N17       29.78R FOG     WCI  12
MCCOOK NEB     PTCLDY    27  25  92 N15       29.74R WCI  15
AKRON CO       CLOUDY    20  16  84 N16       29.79R WCI   6
BURLINGTON CO  CLOUDY    25  21  85 N17       29.75R WCI  12
LIMON CO       CLOUDY    20  18  92 N26       29.75R WCI   2
$$

...UNOFFICIAL OBSERVATIONS...

CITY           SKY/WX    TMP DP  RH WIND       PRES   REMARKS
LENORA KS        N/A     30  32 100 NE12G18     N/A
NORTON KS      CLOUDY    30  27  86 NW18G25   29.70R WCI  18
SHARON SPRINGS   N/A     27  23  85 NW21G30     N/A  WCI  13
TRENTON NEB      N/A     23  32 100 CALM        N/A
KIT CARSON CO    N/A     24  18  78 MISG        N/A
YUMA CO        CLOUDY    21  19  93 N7        29.79R
$$




USA.gov is the U.S. government's official web portal to all federal, state and local government web resources and services.